Fort Huachuca, AZ

7:57 PM MST on January 22, 2017 (GMT -0700)
Sierra Vista Municipal-Libby Army Air Field

Weather History for KFHU - November, 2010

Change the Weather History Date:

Wednesday, November 17, 2010

  Actual Average Record
Temperature  
Mean Temperature 54 °F -  
Max Temperature 66 °F 66 °F 80 °F (2006)
Min Temperature 42 °F 44 °F 28 °F (1991)
Degree Days  
Heating Degree Days 11    
Growing Degree Days 4 (Base 50)    
Moisture  
Dew Point 28 °F    
Average Humidity 39    
Maximum Humidity 61    
Minimum Humidity 23    
Precipitation  
Precipitation 0.00 in - - ()
Sea Level Pressure  
Sea Level Pressure 30.09 in    
Wind  
Wind Speed 7 mph (SSW)    
Max Wind Speed 10 mph    
Max Gust Speed 15 mph    
Visibility 10 miles    
Events      
Averages and records for this station are not official NWS values.
T = Trace of Precipitation, MM = Missing Value Source: NWS Daily Summary

Daily Weather History Graph

Daily Weather History Graph

Search for Another Location

Airport or City:

Trip Planner

Search our weather history database for the weather conditions in past years. The results will help you decide how hot, cold, wet, or windy it might be!

Date:

Astronomy

Nov. 17, 2010 Rise Set
Actual Time 6:51 AM MST 5:21 PM MST
Civil Twilight 6:25 AM MST 5:47 PM MST
Nautical Twilight 5:55 AM MST 6:16 PM MST
Astronomical Twilight 5:26 AM MST 6:45 PM MST
Moon 2:45 PM MST (11/17) 3:04 AM MST (11/17)
Length of Visible Light 11h 22m
Length of Day
10h 30m
Waxing Gibbous, 85% of the Moon is Illuminated
Nov 17
Waxing Gibbous
Nov 21
Full
Nov 28
Last Quarter
Dec 5
New
Dec 13
First Quarter

Hourly Weather History & Observations

Time (MST) Temp. Windchill Dew Point Humidity Pressure Visibility Wind Dir Wind Speed Gust Speed Precip Events Conditions
12:56 AM 45.0 °F 39.7 °F 30.0 °F 56% 29.97 in 10.0 mi West 10.4 mph - N/A   Clear
1:56 AM 46.9 °F - 30.9 °F 54% 29.98 in 10.0 mi WSW 8.1 mph - N/A   Clear
2:56 AM 44.1 °F 38.6 °F 30.0 °F 58% 30.00 in 10.0 mi WSW 10.4 mph - N/A   Clear
3:56 AM 46.9 °F - 30.9 °F 54% 30.00 in 10.0 mi WSW 9.2 mph - N/A   Clear
4:56 AM 46.0 °F 41.0 °F 30.9 °F 56% 30.02 in 10.0 mi WSW 10.4 mph - N/A   Clear
5:55 AM 42.8 °F - 30.2 °F 61% 30.04 in 10.0 mi Variable 2.3 mph - N/A   Clear
6:55 AM 44.6 °F 43.1 °F 28.4 °F 53% 30.09 in 50.0 mi West 3.5 mph - N/A   Clear
7:55 AM 48.2 °F - 32.0 °F 54% 30.08 in 90.0 mi SW 2.3 mph - N/A   Clear
8:55 AM 53.6 °F - 32.0 °F 44% 30.12 in 90.0 mi Variable 2.3 mph - N/A   Clear
9:55 AM 57.2 °F - 32.0 °F 38% 30.14 in 90.0 mi Variable 2.3 mph - N/A   Partly Cloudy
10:55 AM 62.6 °F - 32.0 °F 32% 30.12 in 90.0 mi Variable 2.3 mph - N/A   Partly Cloudy
11:55 AM 64.4 °F - 28.4 °F 26% 30.10 in 90.0 mi ESE 8.1 mph - N/A   Partly Cloudy
12:55 PM 66.2 °F - 26.6 °F 23% 30.08 in 90.0 mi Variable 2.3 mph - N/A   Partly Cloudy
1:55 PM 66.2 °F - 26.6 °F 23% 30.07 in 90.0 mi East 10.4 mph 15.0 mph N/A   Partly Cloudy
2:55 PM 66.2 °F - 28.4 °F 24% 30.06 in 90.0 mi Variable 5.8 mph - N/A   Clear
3:55 PM 66.2 °F - 28.4 °F 24% 30.06 in 50.0 mi SE 5.8 mph - N/A   Clear
4:55 PM 64.4 °F - 26.6 °F 24% 30.09 in 50.0 mi SE 4.6 mph - N/A   Clear
5:55 PM 55.4 °F - 23.0 °F 29% 30.13 in 35.0 mi Variable 2.3 mph - N/A   Clear
6:55 PM 53.6 °F - 24.8 °F 33% 30.15 in 10.0 mi South 4.6 mph - N/A   Clear
7:55 PM 50.0 °F - 23.0 °F 35% 30.17 in 10.0 mi Variable 3.5 mph - N/A   Clear
8:55 PM 46.4 °F 43.5 °F 21.2 °F 37% 30.19 in 10.0 mi South 5.8 mph - N/A   Clear
9:55 PM 48.2 °F - 23.0 °F 37% 30.15 in 10.0 mi SSE 5.8 mph - N/A   Clear
10:55 PM 53.6 °F - 19.4 °F 26% 30.14 in 10.0 mi South 8.1 mph - N/A   Clear
11:56 PM 51.1 °F - 25.0 °F 36% 30.14 in 10.0 mi SSE 9.2 mph - N/A   Clear